Location: Friaudour
(46.0460°N, 1.2873°E)
Time: 00:10:14
(UTC+00:00)

SeaSat 1 - Visible Passes

Search period start: 24 October 2020 00:00
Search period end: 03 November 2020 00:00
Orbit: 744 x 748 km, 108.0° (Epoch: 23 October)

Date Brightness Start Highest point End Pass type
(mag) Time Alt. Az. Time Alt. Az. Time Alt. Az.
24 Oct 3.0 18:14:54 22° ESE 18:17:29 37° NE 18:22:01 10° NNW visible
24 Oct 3.7 19:54:42 36° WSW 19:54:59 36° WSW 19:59:33 10° NW visible
25 Oct 3.9 17:32:24 10° E 17:35:45 19° NE 17:39:06 10° N visible
25 Oct 2.3 19:11:59 67° SSE 19:12:41 88° WSW 19:17:39 10° NNW visible
25 Oct 5.3 20:51:47 12° W 20:51:47 12° W 20:53:05 10° WNW visible
26 Oct 2.9 18:29:14 33° E 18:30:38 40° NE 18:35:15 10° NNW visible
26 Oct 4.1 20:09:02 31° W 20:09:02 31° W 20:12:39 10° NW visible
27 Oct 3.9 17:46:27 14° E 17:48:52 20° NE 17:52:22 10° N visible
27 Oct 2.5 19:26:15 74° WNW 19:26:15 74° WNW 19:30:49 10° NNW visible
28 Oct 2.8 18:43:28 43° ENE 18:43:47 43° NE 18:48:27 10° NNW visible
28 Oct 4.6 20:23:16 23° WNW 20:23:16 23° WNW 20:25:44 10° NW visible
29 Oct 3.8 18:00:38 19° ENE 18:01:59 21° NE 18:05:38 10° N visible
29 Oct 3.2 19:40:26 47° NW 19:40:26 47° NW 19:43:59 10° NNW visible
30 Oct 4.4 17:19:13 10° NE 17:20:28 11° NE 17:21:42 10° NNE visible
30 Oct 2.9 18:57:35 44° NNE 18:57:35 44° NNE 19:01:40 10° NNW visible
30 Oct 5.0 20:37:24 17° WNW 20:37:24 17° WNW 20:38:50 10° NW visible
31 Oct 3.7 18:14:43 22° NE 18:15:07 22° NE 18:18:53 10° N visible
31 Oct 4.0 19:54:31 32° NW 19:54:31 32° NW 19:57:09 10° NNW visible
01 Nov 4.4 17:31:55 10° NE 17:33:34 12° NE 17:35:12 10° NNE visible
01 Nov 3.4 19:11:38 37° N 19:11:38 37° N 19:14:52 10° NNW visible
01 Nov 5.4 20:51:26 12° NW 20:51:26 12° NW 20:51:54 10° NW visible
02 Nov 3.7 18:28:45 23° NE 18:28:45 23° NE 18:32:08 10° N visible
02 Nov 4.5 20:08:32 22° NW 20:08:32 22° NW 20:10:19 10° NNW visible
